AL YAH 3

Last updated on Tue Sep 22 2026 00:03:14 GMT+0000 (Coordinated Universal Time)

1 43174U 18012A 26264.34251669 -.00000158 00000+0 00000+0 0 9990 2 43174 1.7927 81.8012 0003533 96.7172 284.9357 1.00271787 31817
UTC large
Height (km)
Speed (km/s)
/
Latitude / Longitude
Inclination (degrees)
Orbital Period (minutes)
Azimuth
Elevation
Range (km)
Doppler Factor

Next 0 passes for location: London (51.5072 / 0.1276)

No passes found over London.
AL YAH 3